Regional Weather Roundup
Issued by NWS Cleveland, OH

Home | Current Version | Previous Version | Graphics & Text | Print | Product List | Glossary On
Versions: 1 2 3 4 5 6 7 8 9 10 11 12 13 14 15 16 17 18 19 20 21 22 23 24 25 26 27 28 29 30 31 32 33 34 35 36 37 38 39 40 41 42 43 44 45 46 47 48 49 50
000
ASUS41 KCLE 280802
RWRCLE
OHIO REGIONAL WEATHER ROUNDUP
NATIONAL WEATHER SERVICE CLEVELAND, OH
400 AM EDT SAT MAR 28 2015

NOTE: "FAIR" INDICATES FEW OR NO CLOUDS BELOW 12,000 FEET WITH NO
SIGNIFICANT WEATHER AND/OR OBSTRUCTIONS TO VISIBILITY.

OHZ001>008-015>018-024>027-034-035-043-044-280900-
   NORTHWEST OHIO

CITY           SKY/WX    TMP DP  RH WIND       PRES   REMARKS
DEFIANCE       CLEAR     19   9  65 NE12      30.19R WCI   7
FINDLAY        MOCLDY    19  11  70 N9        30.15R WCI   8
TOLEDO EXPRESS CLEAR     16   6  65 NW5       30.17S WCI   9
TOLEDO EXEC    CLEAR     18   5  57 N7        30.18R WCI   9
LIMA           PTCLDY    21  14  74 NE8       30.13S WCI  11
$$

OHZ009>014-019>023-028>033-038-089-280900-
   NORTHEAST OHIO

CITY           SKY/WX    TMP DP  RH WIND       PRES   REMARKS
CLE-HOPKINS    CLOUDY    17   6  62 N12       30.13S WCI   4
CLE-LAKEFRONT  CLOUDY    18   8  65 N10       30.11F WCI   6
CUY CO. ARPT   NOT AVBL
LORAIN-ELYRIA  MOCLDY    17   7  64 N10       30.12S WCI   5
ASHTABULA      CLOUDY    16   8  71 N10       30.06S WCI   4
AKRON-CANTON   PTCLDY    15   7  70 NW10      30.05S WCI   2
WOOSTER        CLOUDY    16   9  74 N10       30.08S WCI   4
MANSFIELD      CLOUDY    12  10  92 NW5       30.08S WCI   4
YOUNGSTOWN     FLURRIES  15   6  67 NW12      30.02F WCI   2
$$

OHZ042-051>053-060>062-070>072-077>081-280900-
  SOUTHWEST OHIO

CITY           SKY/WX    TMP DP  RH WIND       PRES   REMARKS
CINC-COVINGTON CLEAR     22  13  68 N13       30.12S WCI  10
CINC-LUNKEN    CLEAR     23  13  65 N8        30.16S WCI  14
HAMILTON       CLEAR     22  14  71 NW7       30.15S WCI  13
DAYTON         CLEAR     20  14  77 NW6       30.12S WCI  12
WRIGHT-PAT AFB CLEAR     21  13  69 NW8       30.12S WCI  12
DAYTON GENERAL CLEAR     22  15  75 NW6       30.11S WCI  14
WILMINGTON     PTCLDY    20  11  68 N7        30.10S WCI  11
$$

OHZ036-037-039>041-045>050-054>059-063>069-073>076-082>088-280900-
  CENTRAL AND SOUTHEAST OHIO

CITY           SKY/WX    TMP DP  RH WIND       PRES   REMARKS
COLUMBUS       MOCLDY    20  15  81 N6        30.10S WCI  12
OSU AIRPORT    MOCLDY    19  14  81 N8        30.10S WCI   9
BOLTON FIELD   CLEAR    N/A N/A N/A NW7       30.11S
RICKENBACK AFB NOT AVBL
NEWARK         CLEAR     17  11  77 N6        30.09S WCI   9
MARION         PTCLDY    16  10  77 N8        30.12R WCI   5
LANCASTER      MOCLDY    22  16  78 N7        30.09S WCI  13
ZANESVILLE     PTCLDY    18   8  65 N7        30.07S WCI   9
NEW PHILLY     CLEAR     19   7  59 N12G20    30.08S WCI   7
$$


USA.gov is the U.S. government's official web portal to all federal, state and local government web resources and services.